Regional Weather Roundup
Issued by NWS

Home | Current Version | Previous Version | Text Only | Print | Product List | Glossary On
Versions: 1 2 3 4 5 6 7 8 9 10 11 12 13 14 15 16 17 18 19 20 21 22 23 24 25 26 27 28 29 30 31 32 33 34 35 36 37 38 39 40 41 42 43 44 45 46 47 48 49 50
261
ASUS44 KLIX 201811
RWRLA
LOUISIANA WEATHER ROUNDUP
NATIONAL WEATHER SERVICE NEW ORLEANS LA
100 PM CDT MON APR 20 2015

NOTE: "FAIR" INDICATES FEW OR NO CLOUDS BELOW 12,000 FEET WITH NO
      SIGNIFICANT WEATHER AND/OR OBSTRUCTIONS TO VISIBILITY.
      SKY/WX - SKY CONDITION AND SIGNIFICANT WEATHER.
      TMP - AIR TEMPERATURE.    DP   - DEWPOINT TEMPERATURE.
      RH  - RELATIVE HUMIDITY.  PRES - PRESSURE.
      HX  - HEAT INDEX.         WCI  - WIND CHILL INDEX.

*  THESE STATIONS ARE NOT NWS OR FAA STATIONS AND ARE NOT UNDER
   NWS QUALITY CONTROL.

LAZ040-048-061>063-065-066-069-201900-
SOUTHEAST LOUISIANA

CITY           SKY/WX    TMP DP  RH WIND       PRES   REMARKS
N.O. AUDUBON     N/A     81  66  59 MISG        N/A
6HR MIN TEMP:  70; 6HR MAX TEMP:  82;

N.O. INTL ARPT PTSUNNY   77  60  55 N10G21    29.87F
6HR MIN TEMP:  70; 6HR MAX TEMP:  77;

N.O. LAKEFRONT MOSUNNY   77  60  55 NW16      29.87F
6HR MIN TEMP:  75; 6HR MAX TEMP:  77;

SLIDELL        MOSUNNY   78  56  46 W8        29.84F
6HR MIN TEMP:  69; 6HR MAX TEMP:  79;

BATON ROUGE    PTSUNNY   72  55  55 W9        29.90F
6HR MIN TEMP:  65; 6HR MAX TEMP:  73;

BOOTHVILLE     PTSUNNY   78  61  55 NW9       29.87F
6HR MIN TEMP:  72; 6HR MAX TEMP:  78;

BELLE CHASSE   PTSUNNY   79  57  46 VRB5G20   29.85F
6HR MIN TEMP:  70; 6HR MAX TEMP:  80;

BOGALUSA*        N/A     77  53  43 W8G17     29.88F
6HR MIN TEMP:  65; 6HR MAX TEMP:  77;

GALLIANO*      CLEAR     82  58  43 MISG      29.87F
6HR MIN TEMP:  73; 6HR MAX TEMP:  82;

NEW ROADS*     FAIR      69  53  56 NW12      29.93S
6HR MIN TEMP:  63; 6HR MAX TEMP:  69;

GONZALES*      FAIR      73  55  52 NW9       29.90S
6HR MIN TEMP:  68; 6HR MAX TEMP:  73;

HAMMOND*       PTSUNNY   77  50  38 NW14      29.89F
HOUMA*         MOSUNNY   79  63  57 NW7       29.88F
PORT FOURCHON* CLEAR     79  57  47 NW7G15    29.91S

$$

LAZ041-044-053-054-201900-
SOUTHWEST LOUISIANA

CITY           SKY/WX    TMP DP  RH WIND       PRES   REMARKS
LAKE CHARLES   MOSUNNY   71  48  43 N8        29.95F
6HR MIN TEMP:  62; 6HR MAX TEMP:  72;

LAFAYETTE      PTSUNNY   72  52  49 NW10      29.93S
6HR MIN TEMP:  66; 6HR MAX TEMP:  73;

PATTERSON      MOSUNNY   75  57  53 N9        29.91F
6HR MIN TEMP:  66; 6HR MAX TEMP:  75;

SALT POINT       N/A     75  57  53 VRB7      29.89F
6HR MIN TEMP:  71; 6HR MAX TEMP:  76;

NEW IBERIA     PTSUNNY   74  55  51 NW10      29.93F
6HR MIN TEMP:  64; 6HR MAX TEMP:  74;

CHENAULT AIRPK NOT AVBL

$$

LAZ027-028-201900-
CENTRAL LOUISIANA

CITY           SKY/WX    TMP DP  RH WIND       PRES   REMARKS
FORT POLK      SUNNY     68  43  40 N14       29.95F
6HR MIN TEMP:  56; 6HR MAX TEMP:  68;

ALEXANDRIA INT SUNNY     68  48  48 N12G18    29.93F
6HR MIN TEMP:  58; 6HR MAX TEMP:  68;

ALEXANDRIA     SUNNY     69  45  41 NW10      29.94F
6HR MIN TEMP:  57; 6HR MAX TEMP:  69;


$$

LAZ001-002-201900-
NORTHWEST LOUISIANA

CITY           SKY/WX    TMP DP  RH WIND       PRES   REMARKS
SHREVEPORT     MOSUNNY   68  40  35 NW13G20   29.98F
6HR MIN TEMP:  53; 6HR MAX TEMP:  69;

BARKSDALE AFB  SUNNY     67  38  34 NW17      29.97F
6HR MIN TEMP:  53; 6HR MAX TEMP:  67;

DTN SHREVEPORT SUNNY     65  37  35 NW14      29.98F
6HR MIN TEMP:  52; 6HR MAX TEMP:  65;


$$

LAZ014-016-201900-
NORTHEAST LOUISIANA

CITY           SKY/WX    TMP DP  RH WIND       PRES   REMARKS
MONROE         SUNNY     68  45  43 NW13G20   29.94S
6HR MIN TEMP:  58; 6HR MAX TEMP:  68;

TALLULAH       SUNNY     68  48  48 NW8       29.92S
6HR MIN TEMP:  60; 6HR MAX TEMP:  68;


$$




USA.gov is the U.S. government's official web portal to all federal, state and local government web resources and services.